Powrót do katalogu

COSMOS 1275 DEB

AktywnyPO
NORAD 14739·DEBRIS·🇷🇺 Russia

Wystrzelony Jun 4, 1981 z Plesetsk Cosmodrome

Loading…

Następne Przeloty (najbliższe 24 godziny)

TLE

ŚwieżeSource: Space-Track

Epoka: Sep 14, 2026, 01:25 UTC

1 14739U 81053JU  26257.05915213  .00001210  00000-0  74958-3 0  9999
2 14739  83.0057 133.5818 0056624 304.9283  54.6576 14.03685039274421

Śledź COSMOS 1275 DEB w czasie rzeczywistym z AllMySat

Download on the App Store